Time,TemperatureF,DewpointF,PressureIn,WindDirection,WindDirectionDegrees,WindSpeedMPH,WindSpeedGustMPH,Humidity,HourlyPrecipIn,Conditions,Clouds,dailyrainin,SoftwareType,DateUTC
2013-10-22 00:00:00,55.6,49.0,30.03,WSW,247,1.9,4.0,77,0.00,,,0.00,Rainwise IP-100,2013-10-22 04:00:00,
2013-10-22 00:01:00,55.6,49.0,30.02,South,180,2.1,4.0,77,0.00,,,0.00,Rainwise IP-100,2013-10-22 04:01:00,
2013-10-22 00:06:00,55.4,48.0,30.02,SSE,157,1.6,4.0,78,0.00,,,0.00,Rainwise IP-100,2013-10-22 04:06:00,
2013-10-22 00:11:00,55.2,48.0,30.02,SSE,157,1.6,5.0,78,0.00,,,0.00,Rainwise IP-100,2013-10-22 04:11:00,
2013-10-22 00:16:00,55.1,49.0,30.02,SW,225,1.4,6.0,79,0.00,,,0.00,Rainwise IP-100,2013-10-22 04:16:00,
2013-10-22 00:21:00,55.1,49.0,30.01,South,180,2.1,4.0,79,0.00,,,0.00,Rainwise IP-100,2013-10-22 04:21:00,
2013-10-22 00:26:00,55.0,49.0,30.02,SSE,157,2.1,5.0,80,0.00,,,0.00,Rainwise IP-100,2013-10-22 04:26:00,
2013-10-22 00:31:00,54.9,49.0,30.02,SSE,157,2.6,5.0,80,0.00,,,0.00,Rainwise IP-100,2013-10-22 04:31:00,
2013-10-22 00:36:00,54.8,48.0,30.01,South,180,3.0,5.0,80,0.00,,,0.00,Rainwise IP-100,2013-10-22 04:36:00,
2013-10-22 00:41:00,54.7,49.0,30.02,SW,225,1.4,6.0,81,0.00,,,0.00,Rainwise IP-100,2013-10-22 04:41:00,
2013-10-22 00:46:00,54.7,49.0,30.02,WSW,247,0.0,4.0,81,0.00,,,0.00,Rainwise IP-100,2013-10-22 04:46:00,
2013-10-22 00:51:00,54.7,49.0,30.01,SSW,202,1.6,4.0,81,0.00,,,0.00,Rainwise IP-100,2013-10-22 04:51:00,
2013-10-22 00:56:00,54.9,50.0,30.01,SSE,157,2.6,4.0,82,0.00,,,0.00,Rainwise IP-100,2013-10-22 04:56:00,
2013-10-22 01:01:00,54.7,49.0,30.01,SSE,157,1.9,3.0,82,0.00,,,0.00,Rainwise IP-100,2013-10-22 05:01:00,
2013-10-22 01:06:00,54.4,49.0,30.01,SE,135,1.2,3.0,82,0.00,,,0.00,Rainwise IP-100,2013-10-22 05:06:00,
2013-10-22 01:11:00,54.1,48.0,30.01,SSE,157,2.8,4.0,82,0.00,,,0.00,Rainwise IP-100,2013-10-22 05:11:00,
2013-10-22 01:16:00,53.9,49.0,30.00,SSE,157,4.0,5.0,83,0.00,,,0.00,Rainwise IP-100,2013-10-22 05:16:00,
2013-10-22 01:21:00,53.9,49.0,30.00,SSE,157,2.3,4.0,84,0.00,,,0.00,Rainwise IP-100,2013-10-22 05:21:00,
2013-10-22 01:26:00,53.8,48.0,30.00,SSE,157,2.6,4.0,84,0.00,,,0.00,Rainwise IP-100,2013-10-22 05:26:00,
2013-10-22 01:31:00,53.5,48.0,30.00,SE,135,2.3,3.0,84,0.00,,,0.00,Rainwise IP-100,2013-10-22 05:31:00,
2013-10-22 01:36:00,53.1,48.0,30.00,ESE,112,2.6,4.0,85,0.00,,,0.00,Rainwise IP-100,2013-10-22 05:36:00,
2013-10-22 01:41:00,52.5,48.0,30.00,SE,135,2.8,4.0,86,0.00,,,0.00,Rainwise IP-100,2013-10-22 05:41:00,
2013-10-22 01:46:00,52.2,48.0,29.99,SSE,157,2.6,4.0,86,0.00,,,0.00,Rainwise IP-100,2013-10-22 05:46:00,
2013-10-22 01:51:00,52.2,48.0,29.99,SE,135,3.3,4.0,87,0.00,,,0.00,Rainwise IP-100,2013-10-22 05:51:00,
2013-10-22 01:56:00,52.1,48.0,29.99,SSE,157,2.6,4.0,88,0.00,,,0.00,Rainwise IP-100,2013-10-22 05:56:00,
2013-10-22 02:01:00,52.1,48.0,29.99,SSE,157,3.3,5.0,88,0.00,,,0.00,Rainwise IP-100,2013-10-22 06:01:00,
2013-10-22 02:06:00,52.1,49.0,29.99,SSE,157,2.8,5.0,89,0.00,,,0.00,Rainwise IP-100,2013-10-22 06:06:00,
2013-10-22 02:11:00,52.3,49.0,29.99,SE,135,3.5,5.0,89,0.00,,,0.00,Rainwise IP-100,2013-10-22 06:11:00,
2013-10-22 02:16:00,52.6,50.0,29.98,SSE,157,3.3,5.0,89,0.00,,,0.00,Rainwise IP-100,2013-10-22 06:16:00,
2013-10-22 02:21:00,52.9,50.0,29.99,South,180,4.4,6.0,90,0.00,,,0.00,Rainwise IP-100,2013-10-22 06:21:00,
2013-10-22 02:26:00,53.1,50.0,29.99,SSE,157,4.2,6.0,89,0.00,,,0.00,Rainwise IP-100,2013-10-22 06:26:00,
2013-10-22 02:31:00,53.3,50.0,29.98,SSE,157,3.0,6.0,89,0.00,,,0.00,Rainwise IP-100,2013-10-22 06:31:00,
2013-10-22 02:36:00,53.3,50.0,29.98,SSE,157,2.3,5.0,89,0.00,,,0.00,Rainwise IP-100,2013-10-22 06:36:00,
2013-10-22 02:41:00,53.4,50.0,29.98,SE,135,3.3,7.0,90,0.00,,,0.00,Rainwise IP-100,2013-10-22 06:41:00,
2013-10-22 02:46:00,53.3,50.0,29.98,SSE,157,3.3,4.0,90,0.00,,,0.00,Rainwise IP-100,2013-10-22 06:46:00,
2013-10-22 02:51:00,53.3,50.0,29.98,SE,135,3.0,5.0,90,0.00,,,0.00,Rainwise IP-100,2013-10-22 06:51:00,
2013-10-22 02:56:00,53.4,50.0,29.98,SSE,157,2.8,6.0,90,0.00,,,0.00,Rainwise IP-100,2013-10-22 06:56:00,
2013-10-22 03:01:00,53.3,50.0,29.98,SSE,157,4.2,4.2,90,0.00,,,0.00,Rainwise IP-100,2013-10-22 07:01:00,
2013-10-22 03:06:00,53.4,50.0,29.98,SSE,157,3.0,6.0,90,0.00,,,0.00,Rainwise IP-100,2013-10-22 07:06:00,
2013-10-22 03:11:00,53.5,50.0,29.98,SSE,157,3.3,6.0,90,0.00,,,0.00,Rainwise IP-100,2013-10-22 07:11:00,
2013-10-22 03:16:00,53.6,50.0,29.98,SSE,157,3.7,5.0,91,0.00,,,0.00,Rainwise IP-100,2013-10-22 07:16:00,
2013-10-22 03:21:00,53.7,50.0,29.97,SSE,157,2.8,4.0,91,0.00,,,0.00,Rainwise IP-100,2013-10-22 07:21:00,
2013-10-22 03:26:00,53.7,50.0,29.97,SSE,157,2.1,4.0,91,0.00,,,0.00,Rainwise IP-100,2013-10-22 07:26:00,
2013-10-22 03:31:00,53.9,51.0,29.97,SSE,157,2.8,5.0,91,0.00,,,0.00,Rainwise IP-100,2013-10-22 07:31:00,
2013-10-22 03:36:00,54.1,52.0,29.97,SE,135,2.8,6.0,92,0.00,,,0.00,Rainwise IP-100,2013-10-22 07:36:00,
2013-10-22 03:41:00,54.2,52.0,29.97,SSE,157,2.6,4.0,92,0.00,,,0.00,Rainwise IP-100,2013-10-22 07:41:00,
2013-10-22 03:46:00,54.1,52.0,29.97,SSE,157,2.3,5.0,92,0.00,,,0.00,Rainwise IP-100,2013-10-22 07:46:00,
2013-10-22 03:51:00,54.1,52.0,29.96,SE,135,1.9,4.0,92,0.00,,,0.00,Rainwise IP-100,2013-10-22 07:51:00,
2013-10-22 03:56:00,54.0,52.0,29.96,SSE,157,1.4,3.0,92,0.00,,,0.00,Rainwise IP-100,2013-10-22 07:56:00,
2013-10-22 04:01:00,53.8,51.0,29.96,SE,135,3.3,3.3,92,0.00,,,0.00,Rainwise IP-100,2013-10-22 08:01:00,
2013-10-22 04:06:00,53.6,51.0,29.96,SSE,157,2.6,5.0,92,0.00,,,0.00,Rainwise IP-100,2013-10-22 08:06:00,
2013-10-22 04:11:00,53.4,51.0,29.95,SSE,157,2.6,5.0,92,0.00,,,0.00,Rainwise IP-100,2013-10-22 08:11:00,
2013-10-22 04:16:00,53.4,51.0,29.95,SSE,157,1.9,5.0,92,0.00,,,0.00,Rainwise IP-100,2013-10-22 08:16:00,
2013-10-22 04:21:00,53.6,51.0,29.95,SE,135,3.3,4.0,93,0.00,,,0.00,Rainwise IP-100,2013-10-22 08:21:00,
2013-10-22 04:26:00,53.6,51.0,29.95,SE,135,2.1,4.0,93,0.00,,,0.00,Rainwise IP-100,2013-10-22 08:26:00,
2013-10-22 04:31:00,53.6,51.0,29.95,SE,135,3.0,4.0,93,0.00,,,0.00,Rainwise IP-100,2013-10-22 08:31:00,
2013-10-22 04:36:00,53.4,51.0,29.95,ESE,112,3.5,4.0,93,0.00,,,0.00,Rainwise IP-100,2013-10-22 08:36:00,
2013-10-22 04:41:00,53.4,51.0,29.95,SE,135,2.6,5.0,93,0.00,,,0.00,Rainwise IP-100,2013-10-22 08:41:00,
2013-10-22 04:46:00,53.5,52.0,29.95,SE,135,2.3,4.0,94,0.00,,,0.00,Rainwise IP-100,2013-10-22 08:46:00,
2013-10-22 04:51:00,53.6,52.0,29.94,SSE,157,2.1,4.0,94,0.00,,,0.00,Rainwise IP-100,2013-10-22 08:51:00,
2013-10-22 04:56:00,53.6,52.0,29.94,SSE,157,2.6,3.0,94,0.00,,,0.00,Rainwise IP-100,2013-10-22 08:56:00,
2013-10-22 05:01:00,53.6,52.0,29.94,SE,135,4.2,4.2,94,0.00,,,0.00,Rainwise IP-100,2013-10-22 09:01:00,
2013-10-22 05:06:00,53.6,52.0,29.94,SE,135,3.5,4.0,94,0.00,,,0.00,Rainwise IP-100,2013-10-22 09:06:00,
2013-10-22 05:11:00,53.8,52.0,29.94,SSE,157,2.8,4.0,94,0.00,,,0.00,Rainwise IP-100,2013-10-22 09:11:00,
2013-10-22 05:16:00,53.8,52.0,29.93,SSE,157,2.6,4.0,95,0.00,,,0.00,Rainwise IP-100,2013-10-22 09:16:00,
2013-10-22 05:21:00,53.7,52.0,29.93,SSE,157,3.5,4.0,95,0.00,,,0.00,Rainwise IP-100,2013-10-22 09:21:00,
2013-10-22 05:26:00,53.7,52.0,29.93,SE,135,1.2,4.0,95,0.00,,,0.00,Rainwise IP-100,2013-10-22 09:26:00,
2013-10-22 05:31:00,53.9,53.0,29.93,South,180,1.2,5.0,95,0.00,,,0.00,Rainwise IP-100,2013-10-22 09:31:00,
2013-10-22 05:36:00,54.1,53.0,29.93,SSE,157,4.0,5.0,95,0.00,,,0.00,Rainwise IP-100,2013-10-22 09:36:00,
2013-10-22 05:41:00,54.4,53.0,29.93,SSE,157,3.7,5.0,94,0.00,,,0.00,Rainwise IP-100,2013-10-22 09:41:00,
2013-10-22 05:46:00,54.5,53.0,29.93,SSE,157,2.3,4.0,94,0.00,,,0.00,Rainwise IP-100,2013-10-22 09:46:00,
2013-10-22 05:52:00,54.5,53.0,29.93,South,180,1.9,5.0,94,0.00,,,0.00,Rainwise IP-100,2013-10-22 09:52:00,
2013-10-22 05:57:00,54.4,53.0,29.92,SSE,157,2.3,4.0,94,0.00,,,0.00,Rainwise IP-100,2013-10-22 09:57:00,
2013-10-22 06:02:00,54.3,52.0,29.92,SSE,157,1.4,4.0,94,0.00,,,0.00,Rainwise IP-100,2013-10-22 10:02:00,
2013-10-22 06:07:00,54.4,53.0,29.92,SSE,157,2.1,4.0,94,0.00,,,0.00,Rainwise IP-100,2013-10-22 10:07:00,
2013-10-22 06:12:00,54.4,53.0,29.92,SSE,157,3.7,4.0,94,0.00,,,0.00,Rainwise IP-100,2013-10-22 10:12:00,
2013-10-22 06:17:00,54.3,52.0,29.92,SSE,157,2.8,5.0,94,0.00,,,0.00,Rainwise IP-100,2013-10-22 10:17:00,
2013-10-22 06:22:00,54.3,52.0,29.92,SSW,202,2.8,4.0,94,0.00,,,0.00,Rainwise IP-100,2013-10-22 10:22:00,
2013-10-22 06:27:00,54.4,53.0,29.92,SSE,157,1.6,4.0,93,0.00,,,0.00,Rainwise IP-100,2013-10-22 10:27:00,
2013-10-22 06:32:00,54.4,53.0,29.92,South,180,2.1,3.0,93,0.00,,,0.00,Rainwise IP-100,2013-10-22 10:32:00,
2013-10-22 06:37:00,54.4,53.0,29.92,SSE,157,2.1,4.0,92,0.00,,,0.00,Rainwise IP-100,2013-10-22 10:37:00,
2013-10-22 06:42:00,54.3,52.0,29.91,South,180,2.3,3.0,92,0.00,,,0.00,Rainwise IP-100,2013-10-22 10:42:00,
2013-10-22 06:47:00,54.2,52.0,29.91,South,180,2.8,3.0,92,0.00,,,0.00,Rainwise IP-100,2013-10-22 10:47:00,
2013-10-22 06:52:00,54.2,52.0,29.91,SSE,157,1.6,3.0,92,0.00,,,0.00,Rainwise IP-100,2013-10-22 10:52:00,
2013-10-22 06:57:00,54.2,52.0,29.91,South,180,2.3,4.0,92,0.00,,,0.00,Rainwise IP-100,2013-10-22 10:57:00,
2013-10-22 07:02:00,54.2,52.0,29.91,SSE,157,2.6,4.0,92,0.00,,,0.00,Rainwise IP-100,2013-10-22 11:02:00,
2013-10-22 07:07:00,54.2,52.0,29.91,South,180,2.6,3.0,92,0.00,,,0.00,Rainwise IP-100,2013-10-22 11:07:00,
2013-10-22 07:12:00,54.1,52.0,29.91,SSE,157,2.3,3.0,93,0.00,,,0.00,Rainwise IP-100,2013-10-22 11:12:00,
2013-10-22 07:17:00,54.1,52.0,29.91,SSE,157,3.3,3.3,93,0.00,,,0.00,Rainwise IP-100,2013-10-22 11:17:00,
2013-10-22 07:22:00,54.1,52.0,29.90,SSE,157,2.8,4.0,93,0.00,,,0.00,Rainwise IP-100,2013-10-22 11:22:00,
2013-10-22 07:27:00,50.0,47.0,29.90,SSE,157,3.5,4.0,93,0.00,,,0.00,Rainwise IP-100,2013-10-22 11:27:00,
2013-10-22 07:32:00,47.5,46.0,29.90,SSE,157,3.3,5.0,93,0.00,,,0.00,Rainwise IP-100,2013-10-22 11:32:00,
2013-10-22 07:37:00,47.7,46.0,29.91,SSE,157,3.7,4.0,93,0.00,,,0.00,Rainwise IP-100,2013-10-22 11:37:00,
2013-10-22 07:42:00,47.8,46.0,29.91,SSE,157,1.6,4.0,93,0.00,,,0.00,Rainwise IP-100,2013-10-22 11:42:00,
2013-10-22 07:47:00,47.9,47.0,29.91,SSE,157,3.5,3.5,93,0.00,,,0.00,Rainwise IP-100,2013-10-22 11:47:00,
2013-10-22 07:52:00,48.2,47.0,29.91,SSE,157,2.8,3.0,93,0.00,,,0.00,Rainwise IP-100,2013-10-22 11:52:00,
2013-10-22 07:57:00,48.6,47.0,29.91,SSE,157,3.0,4.0,93,0.00,,,0.00,Rainwise IP-100,2013-10-22 11:57:00,
2013-10-22 08:02:00,48.9,47.0,29.91,SSE,157,3.0,3.0,93,0.00,,,0.00,Rainwise IP-100,2013-10-22 12:02:00,
2013-10-22 08:07:00,49.3,47.0,29.91,SSE,157,2.8,5.0,93,0.00,,,0.00,Rainwise IP-100,2013-10-22 12:07:00,
2013-10-22 08:12:00,49.6,47.0,29.91,South,180,1.6,5.0,93,0.00,,,0.00,Rainwise IP-100,2013-10-22 12:12:00,
2013-10-22 08:17:00,50.0,47.0,29.90,South,180,2.1,4.0,93,0.00,,,0.00,Rainwise IP-100,2013-10-22 12:17:00,
2013-10-22 08:22:00,50.6,48.0,29.90,SSE,157,3.7,4.0,93,0.00,,,0.00,Rainwise IP-100,2013-10-22 12:22:00,
2013-10-22 08:27:00,51.1,49.0,29.90,SSE,157,0.0,4.0,92,0.00,,,0.00,Rainwise IP-100,2013-10-22 12:27:00,
2013-10-22 08:32:00,51.7,50.0,29.91,SSW,202,3.5,5.0,92,0.00,,,0.00,Rainwise IP-100,2013-10-22 12:32:00,
2013-10-22 08:37:00,52.2,49.0,29.90,SSE,157,2.6,7.0,91,0.00,,,0.00,Rainwise IP-100,2013-10-22 12:37:00,
2013-10-22 08:42:00,52.6,50.0,29.90,SSE,157,0.0,6.0,89,0.00,,,0.00,Rainwise IP-100,2013-10-22 12:42:00,
2013-10-22 08:47:00,53.1,49.0,29.89,SSE,157,3.3,6.0,88,0.00,,,0.00,Rainwise IP-100,2013-10-22 12:47:00,
2013-10-22 08:52:00,53.5,50.0,29.89,WSW,247,0.0,6.0,87,0.00,,,0.00,Rainwise IP-100,2013-10-22 12:52:00,
2013-10-22 08:57:00,54.0,50.0,29.89,SSE,157,2.8,4.0,86,0.00,,,0.00,Rainwise IP-100,2013-10-22 12:57:00,
2013-10-22 09:02:00,54.5,50.0,29.89,South,180,0.0,4.0,86,0.00,,,0.00,Rainwise IP-100,2013-10-22 13:02:00,
2013-10-22 09:07:00,54.9,50.0,29.89,SW,225,2.6,7.0,84,0.00,,,0.00,Rainwise IP-100,2013-10-22 13:07:00,
2013-10-22 09:12:00,55.1,50.0,29.89,WSW,247,1.6,6.0,82,0.00,,,0.00,Rainwise IP-100,2013-10-22 13:12:00,
2013-10-22 09:17:00,55.1,50.0,29.88,SW,225,0.0,5.0,81,0.00,,,0.00,Rainwise IP-100,2013-10-22 13:17:00,
2013-10-22 09:22:00,55.5,50.0,29.88,South,180,4.9,5.0,81,0.00,,,0.00,Rainwise IP-100,2013-10-22 13:22:00,
2013-10-22 09:27:00,55.6,50.0,29.88,SE,135,2.1,7.0,80,0.00,,,0.00,Rainwise IP-100,2013-10-22 13:27:00,
2013-10-22 09:32:00,55.7,50.0,29.88,SSW,202,0.0,8.0,79,0.00,,,0.00,Rainwise IP-100,2013-10-22 13:32:00,
2013-10-22 09:37:00,56.2,49.0,29.87,WSW,247,1.6,4.0,78,0.00,,,0.00,Rainwise IP-100,2013-10-22 13:37:00,
2013-10-22 09:42:00,56.5,49.0,29.87,SSW,202,4.9,7.0,77,0.00,,,0.00,Rainwise IP-100,2013-10-22 13:42:00,
2013-10-22 09:47:00,56.5,49.0,29.87,SSE,157,2.6,10.0,76,0.00,,,0.00,Rainwise IP-100,2013-10-22 13:47:00,
2013-10-22 09:52:00,56.7,49.0,29.87,ESE,112,0.0,9.0,75,0.00,,,0.00,Rainwise IP-100,2013-10-22 13:52:00,
2013-10-22 09:57:00,56.9,48.0,29.87,WSW,247,1.9,8.0,73,0.00,,,0.00,Rainwise IP-100,2013-10-22 13:57:00,
2013-10-22 10:02:00,56.9,48.0,29.87,SSE,157,2.3,12.0,72,0.00,,,0.00,Rainwise IP-100,2013-10-22 14:02:00,
2013-10-22 10:07:00,56.7,47.0,29.86,SSW,202,1.6,8.0,71,0.00,,,0.00,Rainwise IP-100,2013-10-22 14:07:00,
2013-10-22 10:12:00,56.6,47.0,29.86,SSW,202,2.1,13.0,71,0.00,,,0.00,Rainwise IP-100,2013-10-22 14:12:00,
2013-10-22 10:17:00,56.7,47.0,29.86,WSW,247,2.3,9.0,71,0.00,,,0.00,Rainwise IP-100,2013-10-22 14:17:00,
2013-10-22 10:22:00,57.1,47.0,29.85,South,180,6.3,9.0,71,0.00,,,0.00,Rainwise IP-100,2013-10-22 14:22:00,
2013-10-22 10:27:00,57.2,47.0,29.85,South,180,3.3,8.0,70,0.00,,,0.00,Rainwise IP-100,2013-10-22 14:27:00,
2013-10-22 10:32:00,57.4,47.0,29.85,SW,225,4.4,10.0,69,0.00,,,0.00,Rainwise IP-100,2013-10-22 14:32:00,
2013-10-22 10:37:00,57.6,47.0,29.85,West,270,4.7,10.0,69,0.00,,,0.00,Rainwise IP-100,2013-10-22 14:37:00,
2013-10-22 10:42:00,57.5,47.0,29.84,SSW,202,1.6,11.0,69,0.00,,,0.00,Rainwise IP-100,2013-10-22 14:42:00,
2013-10-22 10:47:00,57.6,47.0,29.85,SSE,157,3.7,10.0,69,0.00,,,0.00,Rainwise IP-100,2013-10-22 14:47:00,
2013-10-22 10:52:00,57.6,47.0,29.84,SSW,202,7.0,9.0,69,0.00,,,0.00,Rainwise IP-100,2013-10-22 14:52:00,
2013-10-22 10:57:00,57.6,47.0,29.84,SW,225,2.3,10.0,68,0.00,,,0.00,Rainwise IP-100,2013-10-22 14:57:00,
2013-10-22 11:02:00,57.6,47.0,29.85,South,180,7.5,10.0,68,0.00,,,0.00,Rainwise IP-100,2013-10-22 15:02:00,
2013-10-22 11:07:00,57.2,47.0,29.84,South,180,3.3,9.0,68,0.00,,,0.00,Rainwise IP-100,2013-10-22 15:07:00,
2013-10-22 11:12:00,57.0,47.0,29.84,SSW,202,2.1,10.0,69,0.00,,,0.00,Rainwise IP-100,2013-10-22 15:12:00,
2013-10-22 11:17:00,56.9,47.0,29.84,SSE,157,3.0,10.0,70,0.00,,,0.00,Rainwise IP-100,2013-10-22 15:17:00,
2013-10-22 11:22:00,56.5,47.0,29.84,SSW,202,1.4,8.0,70,0.00,,,0.00,Rainwise IP-100,2013-10-22 15:22:00,
2013-10-22 11:27:00,56.1,47.0,29.84,SSE,157,2.8,6.0,70,0.00,,,0.00,Rainwise IP-100,2013-10-22 15:27:00,
2013-10-22 11:32:00,55.8,47.0,29.84,South,180,4.7,11.0,71,0.00,,,0.00,Rainwise IP-100,2013-10-22 15:32:00,
2013-10-22 11:37:00,55.9,47.0,29.83,West,270,5.6,8.0,72,0.00,,,0.00,Rainwise IP-100,2013-10-22 15:37:00,
2013-10-22 11:42:00,56.3,47.0,29.83,SSE,157,3.3,10.0,72,0.00,,,0.00,Rainwise IP-100,2013-10-22 15:42:00,
2013-10-22 11:47:00,56.5,47.0,29.83,SSW,202,3.0,8.0,71,0.00,,,0.00,Rainwise IP-100,2013-10-22 15:47:00,
2013-10-22 11:52:00,56.3,47.0,29.82,SSW,202,2.8,6.0,71,0.00,,,0.00,Rainwise IP-100,2013-10-22 15:52:00,
2013-10-22 11:57:00,56.2,47.0,29.82,SW,225,2.6,7.0,72,0.00,,,0.00,Rainwise IP-100,2013-10-22 15:57:00,
2013-10-22 12:02:00,56.5,47.0,29.82,SSW,202,3.0,7.0,72,0.00,,,0.00,Rainwise IP-100,2013-10-22 16:02:00,
2013-10-22 12:07:00,56.8,47.0,29.81,SE,135,0.0,8.0,71,0.00,,,0.00,Rainwise IP-100,2013-10-22 16:07:00,
2013-10-22 12:12:00,57.0,47.0,29.81,WSW,247,4.7,8.0,70,0.00,,,0.00,Rainwise IP-100,2013-10-22 16:12:00,
2013-10-22 12:17:00,57.1,47.0,29.81,SSW,202,2.6,9.0,70,0.00,,,0.00,Rainwise IP-100,2013-10-22 16:17:00,
2013-10-22 12:22:00,57.3,47.0,29.81,SSE,157,2.3,6.0,70,0.00,,,0.00,Rainwise IP-100,2013-10-22 16:22:00,
2013-10-22 12:27:00,57.4,48.0,29.80,SSW,202,2.8,10.0,70,0.00,,,0.00,Rainwise IP-100,2013-10-22 16:27:00,
2013-10-22 12:32:00,57.5,48.0,29.81,SSW,202,5.8,8.0,70,0.00,,,0.00,Rainwise IP-100,2013-10-22 16:32:00,
2013-10-22 12:37:00,57.6,47.0,29.81,WSW,247,2.1,8.0,69,0.00,,,0.00,Rainwise IP-100,2013-10-22 16:37:00,
2013-10-22 12:42:00,57.7,47.0,29.80,WSW,247,1.9,9.0,69,0.00,,,0.00,Rainwise IP-100,2013-10-22 16:42:00,
2013-10-22 12:47:00,57.6,47.0,29.80,South,180,2.8,10.0,69,0.00,,,0.00,Rainwise IP-100,2013-10-22 16:47:00,
2013-10-22 12:52:00,57.3,47.0,29.80,SE,135,1.2,8.0,68,0.00,,,0.00,Rainwise IP-100,2013-10-22 16:52:00,
2013-10-22 12:57:00,57.0,47.0,29.80,WSW,247,3.3,8.0,69,0.00,,,0.00,Rainwise IP-100,2013-10-22 16:57:00,
2013-10-22 13:02:00,56.8,47.0,29.80,SSE,157,1.4,9.0,70,0.00,,,0.00,Rainwise IP-100,2013-10-22 17:02:00,
2013-10-22 13:07:00,56.7,47.0,29.80,SW,225,2.1,8.0,70,0.00,,,0.00,Rainwise IP-100,2013-10-22 17:07:00,
2013-10-22 13:12:00,56.5,47.0,29.79,WNW,292,4.9,10.0,71,0.00,,,0.00,Rainwise IP-100,2013-10-22 17:12:00,
2013-10-22 13:17:00,56.4,47.0,29.79,SSE,157,3.7,9.0,71,0.00,,,0.00,Rainwise IP-100,2013-10-22 17:17:00,
2013-10-22 13:22:00,56.5,47.0,29.79,SSW,202,5.4,8.0,71,0.00,,,0.00,Rainwise IP-100,2013-10-22 17:22:00,
2013-10-22 13:27:00,56.8,47.0,29.79,SSW,202,5.8,10.0,71,0.00,,,0.00,Rainwise IP-100,2013-10-22 17:27:00,
2013-10-22 13:32:00,57.1,47.0,29.79,NNW,337,3.7,8.0,70,0.00,,,0.00,Rainwise IP-100,2013-10-22 17:32:00,
2013-10-22 13:37:00,57.4,48.0,29.79,SSW,202,1.9,9.0,70,0.00,,,0.00,Rainwise IP-100,2013-10-22 17:37:00,
2013-10-22 13:42:00,57.5,47.0,29.79,SW,225,2.3,9.0,69,0.00,,,0.00,Rainwise IP-100,2013-10-22 17:42:00,
2013-10-22 13:47:00,57.3,47.0,29.79,SW,225,5.6,9.0,68,0.00,,,0.00,Rainwise IP-100,2013-10-22 17:47:00,
2013-10-22 13:52:00,57.3,47.0,29.78,SW,225,0.0,11.0,69,0.00,,,0.00,Rainwise IP-100,2013-10-22 17:52:00,
2013-10-22 13:57:00,57.7,47.0,29.78,SSW,202,2.3,11.0,69,0.00,,,0.00,Rainwise IP-100,2013-10-22 17:57:00,
2013-10-22 14:02:00,57.7,47.0,29.77,WSW,247,3.7,8.0,68,0.00,,,0.00,Rainwise IP-100,2013-10-22 18:02:00,
2013-10-22 14:07:00,57.2,47.0,29.77,SW,225,6.1,8.0,68,0.00,,,0.00,Rainwise IP-100,2013-10-22 18:07:00,
2013-10-22 14:12:00,56.8,47.0,29.77,WSW,247,2.1,10.0,70,0.00,,,0.00,Rainwise IP-100,2013-10-22 18:12:00,
2013-10-22 14:17:00,57.0,47.0,29.77,SSW,202,1.6,8.0,71,0.00,,,0.00,Rainwise IP-100,2013-10-22 18:17:00,
2013-10-22 14:22:00,57.4,48.0,29.76,SSE,157,1.6,7.0,71,0.00,,,0.00,Rainwise IP-100,2013-10-22 18:22:00,
2013-10-22 14:27:00,57.6,48.0,29.76,WSW,247,4.4,9.0,71,0.00,,,0.00,Rainwise IP-100,2013-10-22 18:27:00,
2013-10-22 14:32:00,57.7,48.0,29.76,WSW,247,5.1,9.0,70,0.00,,,0.00,Rainwise IP-100,2013-10-22 18:32:00,
2013-10-22 14:37:00,57.9,48.0,29.76,SSW,202,6.3,10.0,69,0.00,,,0.00,Rainwise IP-100,2013-10-22 18:37:00,
2013-10-22 14:42:00,57.8,47.0,29.76,SW,225,1.6,10.0,68,0.00,,,0.00,Rainwise IP-100,2013-10-22 18:42:00,
2013-10-22 14:47:00,57.5,47.0,29.76,SE,135,0.0,9.0,69,0.00,,,0.00,Rainwise IP-100,2013-10-22 18:47:00,
2013-10-22 14:52:00,57.3,47.0,29.76,SW,225,5.6,10.0,70,0.00,,,0.00,Rainwise IP-100,2013-10-22 18:52:00,
2013-10-22 14:57:00,57.1,47.0,29.75,SSE,157,4.2,8.0,70,0.00,,,0.00,Rainwise IP-100,2013-10-22 18:57:00,
2013-10-22 15:02:00,57.2,47.0,29.75,SSE,157,2.1,9.0,71,0.00,,,0.00,Rainwise IP-100,2013-10-22 19:02:00,
2013-10-22 15:07:00,57.5,48.0,29.74,SW,225,2.8,9.0,71,0.00,,,0.00,Rainwise IP-100,2013-10-22 19:07:00,
2013-10-22 15:12:00,57.8,48.0,29.75,WNW,292,2.6,11.0,70,0.00,,,0.00,Rainwise IP-100,2013-10-22 19:12:00,
2013-10-22 15:17:00,58.3,48.0,29.76,SSW,202,3.3,10.0,69,0.00,,,0.00,Rainwise IP-100,2013-10-22 19:17:00,
2013-10-22 15:22:00,58.8,48.0,29.75,WSW,247,10.0,10.0,68,0.00,,,0.00,Rainwise IP-100,2013-10-22 19:22:00,
2013-10-22 15:27:00,58.8,48.0,29.75,West,270,5.4,11.0,67,0.00,,,0.00,Rainwise IP-100,2013-10-22 19:27:00,
2013-10-22 15:32:00,58.8,48.0,29.74,SW,225,7.9,10.0,67,0.00,,,0.00,Rainwise IP-100,2013-10-22 19:32:00,
2013-10-22 15:37:00,59.0,47.0,29.74,SW,225,1.4,10.0,66,0.00,,,0.00,Rainwise IP-100,2013-10-22 19:37:00,
2013-10-22 15:42:00,58.9,47.0,29.74,WSW,247,5.4,7.0,66,0.00,,,0.00,Rainwise IP-100,2013-10-22 19:42:00,
2013-10-22 15:47:00,58.7,47.0,29.74,SSE,157,1.2,10.0,66,0.00,,,0.00,Rainwise IP-100,2013-10-22 19:47:00,
2013-10-22 15:52:00,58.9,47.0,29.74,SSW,202,3.0,10.0,66,0.00,,,0.00,Rainwise IP-100,2013-10-22 19:52:00,
2013-10-22 15:57:00,58.6,47.0,29.74,WSW,247,5.1,8.0,65,0.00,,,0.00,Rainwise IP-100,2013-10-22 19:57:00,
2013-10-22 16:02:00,57.6,47.0,29.74,SSW,202,2.1,10.0,66,0.00,,,0.00,Rainwise IP-100,2013-10-22 20:02:00,
2013-10-22 16:07:00,56.8,46.0,29.74,SSW,202,2.6,9.0,67,0.00,,,0.00,Rainwise IP-100,2013-10-22 20:07:00,
2013-10-22 16:12:00,56.2,46.0,29.74,SSW,202,4.4,10.0,68,0.00,,,0.00,Rainwise IP-100,2013-10-22 20:12:00,
2013-10-22 16:17:00,55.9,46.0,29.74,SSW,202,3.3,12.0,69,0.00,,,0.00,Rainwise IP-100,2013-10-22 20:17:00,
2013-10-22 16:22:00,55.9,47.0,29.73,SW,225,6.3,9.0,70,0.00,,,0.00,Rainwise IP-100,2013-10-22 20:22:00,
2013-10-22 16:27:00,55.9,47.0,29.74,South,180,3.0,8.0,71,0.00,,,0.00,Rainwise IP-100,2013-10-22 20:27:00,
2013-10-22 16:32:00,55.7,47.0,29.74,SW,225,1.6,13.0,71,0.00,,,0.00,Rainwise IP-100,2013-10-22 20:32:00,
2013-10-22 16:37:00,55.3,47.0,29.74,WSW,247,7.0,11.0,72,0.00,,,0.00,Rainwise IP-100,2013-10-22 20:37:00,
2013-10-22 16:42:00,55.0,47.0,29.74,SW,225,8.2,12.0,74,0.00,,,0.00,Rainwise IP-100,2013-10-22 20:42:00,
2013-10-22 16:47:00,54.8,47.0,29.74,SW,225,5.1,10.0,75,0.00,,,0.00,Rainwise IP-100,2013-10-22 20:47:00,
2013-10-22 16:52:00,54.5,47.0,29.74,SSW,202,4.0,10.0,76,0.00,,,0.00,Rainwise IP-100,2013-10-22 20:52:00,
2013-10-22 16:57:00,54.3,47.0,29.74,SW,225,4.0,12.0,77,0.00,,,0.00,Rainwise IP-100,2013-10-22 20:57:00,
2013-10-22 17:02:00,54.2,47.0,29.74,SE,135,3.7,11.0,77,0.00,,,0.00,Rainwise IP-100,2013-10-22 21:02:00,
2013-10-22 17:07:00,54.0,47.0,29.74,WSW,247,6.3,11.0,78,0.00,,,0.00,Rainwise IP-100,2013-10-22 21:07:00,
2013-10-22 17:12:00,53.8,47.0,29.73,South,180,5.4,14.0,79,0.00,,,0.00,Rainwise IP-100,2013-10-22 21:12:00,
2013-10-22 17:17:00,53.7,47.0,29.74,SW,225,4.0,12.0,79,0.00,,,0.00,Rainwise IP-100,2013-10-22 21:17:00,
2013-10-22 17:22:00,53.5,47.0,29.74,SW,225,3.0,13.0,80,0.00,,,0.00,Rainwise IP-100,2013-10-22 21:22:00,
2013-10-22 17:27:00,53.5,47.0,29.73,WSW,247,5.1,11.0,81,0.00,,,0.00,Rainwise IP-100,2013-10-22 21:27:00,
2013-10-22 17:32:00,53.4,47.0,29.74,SW,225,1.6,13.0,81,0.00,,,0.00,Rainwise IP-100,2013-10-22 21:32:00,
2013-10-22 17:37:00,53.4,48.0,29.73,South,180,2.3,13.0,82,0.00,,,0.00,Rainwise IP-100,2013-10-22 21:37:00,
2013-10-22 17:42:00,53.4,48.0,29.74,WSW,247,4.7,11.0,82,0.00,,,0.00,Rainwise IP-100,2013-10-22 21:42:00,
2013-10-22 17:47:00,53.3,47.0,29.72,SSW,202,5.6,12.0,82,0.00,,,0.00,Rainwise IP-100,2013-10-22 21:47:00,
2013-10-22 17:52:00,53.3,47.0,29.73,SW,225,0.0,14.0,82,0.00,,,0.00,Rainwise IP-100,2013-10-22 21:52:00,
2013-10-22 17:57:00,53.3,47.0,29.73,WSW,247,8.2,11.0,83,0.00,,,0.00,Rainwise IP-100,2013-10-22 21:57:00,
2013-10-22 18:02:00,53.1,47.0,29.73,SSW,202,4.7,16.0,83,0.00,,,0.00,Rainwise IP-100,2013-10-22 22:02:00,
2013-10-22 18:07:00,52.9,47.0,29.73,WSW,247,3.3,11.0,83,0.00,,,0.00,Rainwise IP-100,2013-10-22 22:07:00,
2013-10-22 18:12:00,53.0,48.0,29.72,WSW,247,2.3,16.0,84,0.00,,,0.00,Rainwise IP-100,2013-10-22 22:12:00,
2013-10-22 18:17:00,53.1,48.0,29.73,SW,225,2.6,11.0,84,0.00,,,0.00,Rainwise IP-100,2013-10-22 22:17:00,
2013-10-22 18:22:00,53.0,48.0,29.73,West,270,5.6,10.0,84,0.00,,,0.00,Rainwise IP-100,2013-10-22 22:22:00,
2013-10-22 18:27:00,53.1,48.0,29.73,WSW,247,2.8,15.0,85,0.00,,,0.00,Rainwise IP-100,2013-10-22 22:27:00,
2013-10-22 18:32:00,53.2,48.0,29.73,WSW,247,5.4,13.0,85,0.00,,,0.00,Rainwise IP-100,2013-10-22 22:32:00,
2013-10-22 18:37:00,53.3,48.0,29.73,West,270,1.4,12.0,85,0.00,,,0.00,Rainwise IP-100,2013-10-22 22:37:00,
2013-10-22 18:42:00,53.3,48.0,29.73,SSW,202,1.9,14.0,86,0.00,,,0.00,Rainwise IP-100,2013-10-22 22:42:00,
2013-10-22 18:47:00,53.3,48.0,29.72,West,270,7.5,10.0,86,0.00,,,0.00,Rainwise IP-100,2013-10-22 22:47:00,
2013-10-22 18:52:00,53.3,48.0,29.73,WSW,247,1.2,11.0,86,0.00,,,0.00,Rainwise IP-100,2013-10-22 22:52:00,
2013-10-22 18:57:00,53.3,48.0,29.72,WSW,247,4.9,14.0,86,0.00,,,0.00,Rainwise IP-100,2013-10-22 22:57:00,
2013-10-22 19:03:00,53.3,48.0,29.73,WSW,247,5.1,12.0,86,0.00,,,0.00,Rainwise IP-100,2013-10-22 23:03:00,
2013-10-22 19:08:00,53.3,48.0,29.73,WSW,247,3.3,13.0,86,0.00,,,0.00,Rainwise IP-100,2013-10-22 23:08:00,
2013-10-22 19:13:00,53.4,49.0,29.73,SW,225,5.4,13.0,86,0.00,,,0.00,Rainwise IP-100,2013-10-22 23:13:00,
2013-10-22 19:18:00,53.4,50.0,29.73,WSW,247,9.1,14.0,87,0.00,,,0.00,Rainwise IP-100,2013-10-22 23:18:00,
2013-10-22 19:23:00,53.4,50.0,29.73,West,270,3.3,16.0,87,0.00,,,0.00,Rainwise IP-100,2013-10-22 23:23:00,
2013-10-22 19:28:00,53.3,49.0,29.73,WSW,247,10.0,12.0,87,0.00,,,0.00,Rainwise IP-100,2013-10-22 23:28:00,
2013-10-22 19:33:00,53.3,49.0,29.73,WNW,292,7.7,16.0,87,0.00,,,0.00,Rainwise IP-100,2013-10-22 23:33:00,
2013-10-22 19:38:00,53.3,49.0,29.73,WSW,247,7.5,16.0,88,0.00,,,0.00,Rainwise IP-100,2013-10-22 23:38:00,
2013-10-22 19:43:00,53.2,49.0,29.73,West,270,5.8,15.0,88,0.00,,,0.00,Rainwise IP-100,2013-10-22 23:43:00,
2013-10-22 19:48:00,53.1,49.0,29.73,WSW,247,2.6,14.0,88,0.00,,,0.00,Rainwise IP-100,2013-10-22 23:48:00,
2013-10-22 19:53:00,53.2,49.0,29.72,SW,225,6.5,15.0,88,0.00,,,0.00,Rainwise IP-100,2013-10-22 23:53:00,
2013-10-22 19:58:00,53.2,49.0,29.72,WSW,247,5.1,15.0,88,0.00,,,0.00,Rainwise IP-100,2013-10-22 23:58:00,
2013-10-22 20:03:00,53.1,50.0,29.73,WSW,247,2.1,16.0,89,0.00,,,0.00,Rainwise IP-100,2013-10-23 00:03:00,
2013-10-22 20:08:00,53.2,50.0,29.73,WSW,247,4.4,12.0,89,0.00,,,0.00,Rainwise IP-100,2013-10-23 00:08:00,
2013-10-22 20:13:00,53.2,50.0,29.73,SW,225,2.6,16.0,89,0.00,,,0.00,Rainwise IP-100,2013-10-23 00:13:00,
2013-10-22 20:18:00,53.2,50.0,29.73,WSW,247,10.5,13.0,89,0.00,,,0.00,Rainwise IP-100,2013-10-23 00:18:00,
2013-10-22 20:23:00,53.2,50.0,29.73,WNW,292,5.8,13.0,89,0.00,,,0.00,Rainwise IP-100,2013-10-23 00:23:00,
2013-10-22 20:28:00,53.0,50.0,29.74,West,270,11.0,12.0,89,0.00,,,0.00,Rainwise IP-100,2013-10-23 00:28:00,
2013-10-22 20:33:00,52.8,50.0,29.73,WNW,292,8.9,14.0,89,0.00,,,0.00,Rainwise IP-100,2013-10-23 00:33:00,
2013-10-22 20:38:00,52.8,50.0,29.74,WSW,247,4.2,16.0,89,0.00,,,0.00,Rainwise IP-100,2013-10-23 00:38:00,
2013-10-22 20:43:00,52.6,50.0,29.74,West,270,8.4,13.0,89,0.00,,,0.00,Rainwise IP-100,2013-10-23 00:43:00,
2013-10-22 20:48:00,52.5,50.0,29.74,WSW,247,4.9,18.0,89,0.00,,,0.00,Rainwise IP-100,2013-10-23 00:48:00,
2013-10-22 20:53:00,52.5,50.0,29.74,WNW,292,1.9,17.0,89,0.00,,,0.00,Rainwise IP-100,2013-10-23 00:53:00,
2013-10-22 20:58:00,52.4,49.0,29.75,WNW,292,9.1,16.0,89,0.00,,,0.00,Rainwise IP-100,2013-10-23 00:58:00,
2013-10-22 21:03:00,52.2,49.0,29.75,West,270,4.9,10.0,89,0.00,,,0.00,Rainwise IP-100,2013-10-23 01:03:00,
2013-10-22 21:08:00,52.0,49.0,29.75,WNW,292,3.0,9.0,89,0.00,,,0.00,Rainwise IP-100,2013-10-23 01:08:00,
2013-10-22 21:13:00,51.7,48.0,29.75,West,270,2.8,11.0,88,0.00,,,0.00,Rainwise IP-100,2013-10-23 01:13:00,
2013-10-22 21:18:00,51.6,48.0,29.75,WNW,292,3.3,10.0,88,0.00,,,0.00,Rainwise IP-100,2013-10-23 01:18:00,
2013-10-22 21:23:00,51.4,47.0,29.75,WNW,292,3.5,11.0,86,0.00,,,0.00,Rainwise IP-100,2013-10-23 01:23:00,
2013-10-22 21:28:00,51.2,47.0,29.75,West,270,11.9,11.9,86,0.00,,,0.00,Rainwise IP-100,2013-10-23 01:28:00,
2013-10-22 21:33:00,51.1,47.0,29.76,NW,315,1.6,11.0,84,0.00,,,0.00,Rainwise IP-100,2013-10-23 01:33:00,
2013-10-22 21:38:00,51.0,47.0,29.76,WNW,292,4.9,13.0,83,0.00,,,0.00,Rainwise IP-100,2013-10-23 01:38:00,
2013-10-22 21:43:00,50.8,45.0,29.76,West,270,4.2,10.0,82,0.00,,,0.00,Rainwise IP-100,2013-10-23 01:43:00,
2013-10-22 21:48:00,50.7,45.0,29.76,WNW,292,2.3,8.0,82,0.00,,,0.00,Rainwise IP-100,2013-10-23 01:48:00,
2013-10-22 21:53:00,50.6,45.0,29.76,WNW,292,2.8,10.0,82,0.00,,,0.00,Rainwise IP-100,2013-10-23 01:53:00,
2013-10-22 21:58:00,50.4,45.0,29.76,West,270,3.5,9.0,82,0.00,,,0.00,Rainwise IP-100,2013-10-23 01:58:00,
2013-10-22 22:03:00,50.2,45.0,29.76,West,270,5.8,9.0,82,0.00,,,0.00,Rainwise IP-100,2013-10-23 02:03:00,
2013-10-22 22:08:00,49.9,45.0,29.76,WNW,292,3.7,11.0,82,0.00,,,0.00,Rainwise IP-100,2013-10-23 02:08:00,
2013-10-22 22:13:00,49.8,45.0,29.76,WNW,292,5.4,10.0,82,0.00,,,0.00,Rainwise IP-100,2013-10-23 02:13:00,
2013-10-22 22:18:00,49.8,45.0,29.76,WSW,247,5.4,10.0,82,0.00,,,0.00,Rainwise IP-100,2013-10-23 02:18:00,
2013-10-22 22:23:00,49.6,45.0,29.76,WNW,292,1.9,10.0,82,0.00,,,0.00,Rainwise IP-100,2013-10-23 02:23:00,
2013-10-22 22:28:00,49.4,44.0,29.77,WNW,292,2.8,10.0,82,0.00,,,0.00,Rainwise IP-100,2013-10-23 02:28:00,
2013-10-22 22:33:00,49.2,44.0,29.77,NNE,22,5.6,12.0,83,0.00,,,0.00,Rainwise IP-100,2013-10-23 02:33:00,
2013-10-22 22:38:00,48.9,44.0,29.77,WNW,292,5.8,11.0,83,0.00,,,0.00,Rainwise IP-100,2013-10-23 02:38:00,
2013-10-22 22:43:00,48.7,44.0,29.76,WNW,292,3.3,11.0,84,0.00,,,0.00,Rainwise IP-100,2013-10-23 02:43:00,
2013-10-22 22:48:00,48.4,44.0,29.77,WSW,247,1.2,10.0,84,0.00,,,0.00,Rainwise IP-100,2013-10-23 02:48:00,
2013-10-22 22:53:00,48.0,44.0,29.77,NW,315,5.6,8.0,84,0.00,,,0.00,Rainwise IP-100,2013-10-23 02:53:00,
2013-10-22 22:58:00,47.8,42.0,29.77,NW,315,2.8,10.0,83,0.00,,,0.00,Rainwise IP-100,2013-10-23 02:58:00,
2013-10-22 23:03:00,47.4,42.0,29.77,North,360,3.3,9.0,81,0.00,,,0.00,Rainwise IP-100,2013-10-23 03:03:00,
2013-10-22 23:08:00,47.2,41.0,29.77,NNE,22,3.0,10.0,80,0.00,,,0.00,Rainwise IP-100,2013-10-23 03:08:00,
2013-10-22 23:13:00,47.0,41.0,29.78,NNE,22,6.1,9.0,80,0.00,,,0.00,Rainwise IP-100,2013-10-23 03:13:00,
2013-10-22 23:18:00,46.8,40.0,29.78,NE,45,1.6,11.0,79,0.00,,,0.00,Rainwise IP-100,2013-10-23 03:18:00,
2013-10-22 23:23:00,46.5,40.0,29.77,NNW,337,1.9,11.0,77,0.00,,,0.00,Rainwise IP-100,2013-10-23 03:23:00,
2013-10-22 23:28:00,46.3,38.0,29.77,NE,45,3.5,12.0,75,0.00,,,0.00,Rainwise IP-100,2013-10-23 03:28:00,
2013-10-22 23:33:00,46.2,38.0,29.77,NNW,337,3.0,10.0,74,0.00,,,0.00,Rainwise IP-100,2013-10-23 03:33:00,
2013-10-22 23:38:00,46.0,38.0,29.78,NNW,337,2.3,11.0,73,0.00,,,0.00,Rainwise IP-100,2013-10-23 03:38:00,
2013-10-22 23:43:00,45.8,37.0,29.78,NNW,337,3.5,8.0,72,0.00,,,0.00,Rainwise IP-100,2013-10-23 03:43:00,
2013-10-22 23:48:00,45.6,37.0,29.77,NW,315,1.9,7.0,72,0.00,,,0.00,Rainwise IP-100,2013-10-23 03:48:00,
2013-10-22 23:53:00,45.3,37.0,29.78,NNE,22,3.7,9.0,72,0.00,,,0.00,Rainwise IP-100,2013-10-23 03:53:00,
2013-10-22 23:58:00,45.2,36.0,29.78,NNW,337,9.1,11.0,71,0.00,,,0.00,Rainwise IP-100,2013-10-23 03:58:00,